Location: Umburanas
(4.5000°S, 37.9667°W)
Time: 19:27:10
(UTC+00:00)

Cosmos 1933 Rocket - Pass Details

Date: 19 November 2019
Orbit: 606 x 631 km, 82.5° (Epoch: 07 December)

Event Time Altitude Azimuth Distance (km) Brightness Sun altitude
Rises 20:58:38 0° 12° (NNE) 2,859 6.6 -8.2°
Reaches altitude 10° 21:00:59 10° 21° (NNE) 1,963 5.7 -8.7°
Maximum altitude 21:04:56 34° 87° (E) 1,009 4.2 -9.7°
Drops below altitude 10° 21:08:57 10° 152° (SSE) 1,989 6.1 -10.6°
Sets 21:11:20 0° 161° (SSE) 2,903 7.0 -11.1°
